Find OneWeb SL0205

NORAD ID: 48226 Int'l Des: 2021-031 Owner: ONEWEBN Country: UK Constellation: oneweb operational
別名: ONEWEB-0205 spacetrack, celestrak
LEOCIRCULARPOLARONEWEB_TYPE

現在のビュー

3D地球を読み込み中...

About OneWeb SL0205

OneWeb SL0205 (NORAD 48226) is a oneweb constellation satellite launched Apr 25, 2021 by ONEWEBN of UK. It operates in LEO, CIRCULAR, POLAR, ONEWEB_TYPE orbit with a mass of 148.00 kg.

次回通過

Passes for default location (London). Set your location on the main map for personalized predictions.

高度履歴

Loading altitude history...

軌道要素

1 48226U 21031S 26263.97126700 -.00000178 00000-0 -51506-3 0 9998
2 48226 87.8898 270.5978 0001689 92.4812 267.6511 13.14504671260851
Epoch: Sep 20, 2026 • Age: 15 hours

現在のステータス

高度 1217.4 km
遠地点 / 近地点 N/A
速度 7.25 km/s
衛星直下点 74.28°N, 134.4°W
打ち上げ日 Apr 25, 2021
運用期間 5.4 years
タイプ internet

技術仕様

分類 Payload
質量 148.00 kg
乾燥質量 140.00 kg
長さ 1.30 m
直径 1.00 m
スパン 5.00 m
形状 ? Trapezoid+2 pan
製造者 ONEWUS
バスタイプ ARROW
フェーズステータス In Orbit
所有者/国 ONEWEBN/UK

Most Searched